Location: The Saddle
(36.8333°N, 80.3417°W)
Time: 08:13:23
(UTC-04:00)

Injun/Solrad 3 - Visible Passes

Search period start: 08 July 2025 00:00
Search period end: 18 July 2025 00:00
Orbit: 871 x 985 km, 66.8° (Epoch: 08 July)

Date Brightness Start Highest point End Pass type
(mag) Time Alt. Az. Time Alt. Az. Time Alt. Az.
08 Jul 8.0 01:17:33 10° NNW 01:22:38 64° NW 01:22:38 64° NW visible
08 Jul 9.3 23:42:53 10° N 23:47:47 25° NE 23:49:30 22° ENE visible
09 Jul 8.6 01:28:48 10° NW 01:33:06 41° WNW 01:33:06 41° WNW visible
09 Jul 8.7 23:53:33 10° NNW 23:59:06 38° NE 00:00:01 36° ENE visible
10 Jul 9.3 01:40:17 10° NW 01:43:37 26° WNW 01:43:37 26° WNW visible
10 Jul 10.2 22:21:39 10° NNE 22:22:28 10° NE 22:23:17 10° NE visible
11 Jul 8.0 00:04:24 10° NNW 00:10:18 58° ENE 00:10:34 57° ENE visible
11 Jul 9.8 01:52:14 10° WNW 01:54:11 16° W 01:54:11 16° W visible
11 Jul 9.9 22:30:39 10° N 22:34:04 15° NE 22:37:26 10° E visible
12 Jul 7.7 00:15:24 10° NNW 00:21:10 83° NNW 00:21:10 83° NNW visible
12 Jul 9.4 22:40:56 10° N 22:45:32 22° NE 22:48:11 17° E visible
13 Jul 8.2 00:26:34 10° NW 00:31:48 55° W 00:31:48 55° W visible
13 Jul 8.9 22:51:32 10° N 22:56:53 33° NE 22:58:51 27° E visible
14 Jul 8.9 00:37:59 10° NW 00:42:29 34° W 00:42:29 34° W visible
14 Jul 8.2 23:02:19 10° NNW 23:08:07 50° ENE 23:09:34 41° E visible
15 Jul 9.5 00:49:45 10° WNW 00:53:11 21° W 00:53:11 21° W visible
15 Jul 9.9 21:28:55 10° NNE 21:31:46 13° NE 21:34:35 10° ENE visible
15 Jul 7.7 23:13:16 10° NNW 23:19:15 78° ENE 23:20:20 60° SE visible
16 Jul 10.0 01:02:22 10° WNW 01:03:57 12° W 01:03:57 12° W visible
16 Jul 9.5 21:39:00 10° N 21:43:16 20° NE 21:47:27 10° E visible
16 Jul 7.8 23:24:23 10° NNW 23:30:17 67° WSW 23:31:08 59° SSW visible
17 Jul 9.0 21:49:31 10° N 21:54:40 29° NE 21:58:20 16° ESE visible
17 Jul 8.5 23:35:43 10° NW 23:41:13 41° WSW 23:41:58 39° SW visible
